Regional Weather Roundup
Issued by NWS Upton, NY

Current Version | Previous Version | Text Only | Print | Product List | Glossary On
Versions: 1 2 3 4 5 6 7 8 9 10 11 12 13 14 15 16 17 18 19 20 21 22 23 24 25 26 27 28 29 30 31 32 33 34 35 36 37 38 39 40 41 42 43 44 45 46 47 48 49 50
000
ASUS41 KOKX 051208
RWROKX

REGIONAL WEATHER ROUNDUP
NATIONAL WEATHER SERVICE NEW YORK NY
800 AM EDT SUN JUL 05 2015

NOTE: "FAIR" INDICATES FEW OR NO CLOUDS BELOW 12,000 FEET WITH NO
SIGNIFICANT WEATHER AND/OR OBSTRUCTIONS TO VISIBILITY.

NYZ071-072-176-178-NJZ106-104-051300-
NEW YORK CITY METRO AREA


CITY           SKY/WX    TMP DP  RH WIND       PRES   REMARKS
CENTRAL PARK   MOSUNNY   70  59  68 NW5       30.13R
LAGUARDIA APRT PTSUNNY   72  60  66 NW5       30.09R
KENNEDY INTL   PTSUNNY   74  60  61 NW6       30.11R
NEWARK/LIBERTY PTSUNNY   72  61  68 W5        30.10R
BRNX BOT. GARD   N/A     70  59  68 SW12      30.10S
TETERBORO      MOSUNNY   71  60  68 CALM      30.09R
$$

NYZ177-179-078>081-051300-
LONG ISLAND NEW YORK

CITY           SKY/WX    TMP DP  RH WIND       PRES   REMARKS
FARMINGDALE    SUNNY     71  61  70 W5        30.10R
ISLIP          PTSUNNY   72  62  71 W6        30.08R
SHIRLEY        SUNNY     71  63  75 W5        30.10R
WESTHAMPTON    SUNNY     70  63  78 W6        30.11R
MONTAUK POINT    N/A     69  63  81 W5        30.10R
$$

NYZ052-065-067-051300-
HUDSON VALLEY

CITY           SKY/WX    TMP DP  RH WIND       PRES   REMARKS
WHITE PLAINS   SUNNY     67  61  81 W6        30.10R
NEWBURGH       SUNNY     59  59 100 CALM      30.12R
MONTGOMERY     SUNNY     66  63  90 CALM      30.11R
POUGHKEEPSIE   MOSUNNY   64  60  87 N3        30.10R FOG
ALBANY         MOSUNNY   64  60  87 S3        30.11R
$$

NJZ001-105-106-008-010-013-015-019>022-104-051300-
NEW JERSEY

CITY           SKY/WX    TMP DP  RH WIND       PRES   REMARKS
NEWARK/LIBERTY PTSUNNY   72  61  68 W5        30.10R
TETERBORO      MOSUNNY   71  60  68 CALM      30.09R
CALDWELL       MOSUNNY   68  59  73 VRB5      30.11R
MORRISTOWN     PTSUNNY   72  68  88 E3        30.12R
SOMERVILLE     MOSUNNY   67  62  84 CALM      30.10R HAZE
SUSSEX         CLOUDY    62  59  90 S3        30.12R FOG
ANDOVER          N/A     64  61  90 CALM      30.13R
TRENTON        MOSUNNY   69  63  81 NW7       30.11R
MILLVILLE      MOSUNNY   71  61  70 E3        30.12R
ATLANTIC CITY  PTSUNNY   71  61  70 CALM      30.12R
WRIGHTSTOWN    MOSUNNY   71  61  69 NW2       30.10R
TOMS RIVER     MOSUNNY   72  61  68 CALM      30.12R
BELMAR         MOSUNNY   70  59  68 W3        30.12R
$$

PAZ047>061-062-071-051300-
EASTERN PENNSYLVANIA

CITY           SKY/WX    TMP DP  RH WIND       PRES   REMARKS
PHILADELPHIA   PTSUNNY   71  62  73 CALM      30.13R
ALLENTOWN      PTSUNNY   66  62  87 CALM      30.13R FOG
SCRANTON       CLOUDY    63  60  90 W5        30.15R FOG
$$

CTZ002-004>006-009-010-012-RIZ004-006-007-MAZ004-011-015-051300-
SOUTHERN NEW ENGLAND
 IN CT

CITY           SKY/WX    TMP DP  RH WIND       PRES   REMARKS
BRADLEY INTL   SUNNY     65  59  81 SW3       30.08R
HARTFORD       SUNNY     66  61  84 MISG      30.08R
DANBURY        SUNNY     64  58  80 NE3       30.12R HAZE
WTRBRY/OXFORD  SUNNY     63  57  82 CALM      30.12R
BRIDGEPORT     SUNNY     70  60  70 W8        30.09R
MERIDEN        SUNNY     66  60  81 CALM      30.09S HAZE
NEW HAVEN      SUNNY     67  60  78 VRB3      30.09R
CHESTER        FAIR      66  61  82 NW3       30.10R
GROTON         SUNNY     69  59  70 NW5       30.08R
WILLIMANTIC    SUNNY     62  58  86 CALM      30.09R

 IN RI

CITY           SKY/WX    TMP DP  RH WIND       PRES   REMARKS
PROVIDENCE     SUNNY     67  59  75 W8        30.07R
BLOCK ISLAND   SUNNY     66  57  72 W8        30.09R
WESTERLY       SUNNY     66  59  78 W5        30.09R

 IN MA

CITY           SKY/WX    TMP DP  RH WIND       PRES   REMARKS
BOSTON         SUNNY     67  58  72 W9        30.05R
WORCESTER      SUNNY     65  57  75 W8        30.09R
WESTFIELD      SUNNY     61  58  90 CALM      30.08R FOG
PROVINCETOWN   SUNNY     64   9  11 SW10      30.06R
NANTUCKET      SUNNY     69  61  75 W9        30.07R
$$

ANZ330-335-338-340-345-350-353-355-051300-
COASTAL MARINE OBSERVATIONS


STATION/POSITION TIME  SKY/WX   TEMP    WIND        PRES    VSBY  WAVE
                                AIR SEA DIR/SP/G                  HT/PER
                 (UTC)          (F)     (DEG/KT/KT) (MB)    (MI)  (FT/S)
NY HARB ENTRANCE 1150            70 69  280/  6/  8 1019.0          4/ 8
4S FIRE IS       1103               70                N/A           4/ 8
20S FIRE ISLAND  1150            69 69  240/  6/  6 1019.2          4/ 8
GREAT SOUTH BAY  1100            69 74  310/  6/  6   N/A
23SW MTP         1150            68 68  260/  8/  8 1018.8          5/ 8
HUDSON CANYON    NOT AVBL
KINGS POINT      1100            69 67   30/  2/  3 1018.0
CENTRAL LI SOUND NOT AVBL
EASTERN LI SOUND 1100            68 64  290/  6/  8   N/A
ROBBINS REEF     1100            69     310/  5/  6 1017.7
$$


>>>>>>>>>>>>>>>>>>>>>>>>>>>> KEY <<<<<<<<<<<<<<<<<<<<<<<<<<<
>                                                          <
>     SKY/WX - SKY CONDITION/PRESENT WEATHER               <
>     TMP    - TEMPERATURE IN FAHRENHEIT                   <
>     DP     - DEWPOINT IN FAHRENHEIT                      <
>     RH     - RELATIVE HUMIDITY IN PERCENT                <
>     WIND   - DIRECTION AND SPEED IN MPH                  <
>     PRES   - MEAN SEA LEVEL PRESSURE IN INCHES OF HG     <
>     WCI    - WIND CHILL INDEX                            <
>     VSB    - VISIBILITY IN MILES                         <
>     HX     - HEAT INDEX                                  <
>     TC     - TEMPERATURE IN CELSIUS                      <
>     VRB    - VARIABLE WIND DIRECTION                     <
>                                                          <
>>>>>>>>>>>>>>>>>>>>>>>>>>>> KEY <<<<<<<<<<<<<<<<<<<<<<<<<<<




USA.gov is the U.S. government's official web portal to all federal, state and local government web resources and services.